Simultaneous Nadir Overpasses (SNOs) Predictions

Prediction of SNOs between GOES-15 and TERRA Satellite Orbit:

Table of predicted SNOs for the next 14.0 days since TLE Epoch: 8/10/2024
Index Date Time (GOES-15) GOES-15 Lat,Lon TERRA Lat,Lon Distance(km) Time Diff (sec)
1 08/11/2024 17:34:31 0.09, 61.77 0.26, 62.57 91.16 80
2 08/12/2024 05:51:43 -0.13, 61.66 0.72, 57.74 446.78 80
3 08/14/2024 05:36:44 -0.11, 61.74 -0.16, 62.00 28.67 80
4 08/16/2024 17:36:24 0.13, 61.98 0.02, 61.39 65.78 80
5 08/18/2024 17:21:23 0.12, 62.07 0.88, 65.66 408.91 80
6 08/19/2024 05:38:34 -0.15, 61.96 0.10, 60.83 129.11 80
7 08/21/2024 05:23:32 -0.14, 62.06 -0.76, 65.10 345.87 80
8 08/21/2024 17:40:51 0.18, 62.20 -0.21, 60.23 223.49 80
9 08/23/2024 17:25:48 0.17, 62.30 0.64, 64.51 251.63 80
